FW5345 Weather Reports


time (UTC)temp
C
wind
direction
speed
KPH
gust
KPH
rain 1hr
cm
rain 24hr
cm
rain mn
cm
humidity
%
barometer
mb
20260505014535 23 264 4.8 16.1 0.00 0.00 0.00 38 1010.5
20260505013031 23 280 6.4 24.1 0.00 0.00 0.00 37 1010.4
20260505011609 23 273 6.4 14.5 0.00 0.00 0.00 36 1010.4
20260505010035 24 294 6.4 17.7 0.00 0.00 0.00 34 1010.4
20260505003111 25 231 6.4 24.1 0.00 0.00 0.00 33 1010.3
20260505001536 25 264 4.8 27.4 0.00 0.00 0.00 34 1010.2
20260505000038 25 286 6.4 20.9 0.00 0.00 0.00 33 1010.2
20260504234534 26 281 6.4 20.9 0.00 0.00 0.00 33 1010.1
20260504231530 26 279 8.0 17.7 0.00 0.00 0.00 34 1010.2
20260504230142 26 268 6.4 19.3 0.00 0.00 0.00 34 1010.2
20260504224531 26 267 6.4 17.7 0.00 0.00 0.00 33 1010.4
20260504223109 26 237 8.0 27.4 0.00 0.00 0.00 32 1010.5
20260504221536 26 234 8.0 22.5 0.00 0.00 0.00 32 1010.5
20260504220035 26 276 8.0 20.9 0.00 0.00 0.00 32 1010.5
20260504214535 26 283 8.0 22.5 0.00 0.00 0.00 33 1010.6
20260504211537 26 289 9.7 27.4 0.00 0.00 0.00 33 1010.6
20260504210037 26 293 8.0 17.7 0.00 0.00 0.00 33 1010.7
20260504204536 26 287 8.0 19.3 0.00 0.00 0.00 33 1010.8
20260504203032 26 310 6.4 17.7 0.00 0.00 0.00 36 1010.9
20260504201534 25 314 9.7 19.3 0.00 0.00 0.00 38 1011.0
20260504200036 25 326 9.7 16.1 0.00 0.00 0.00 40 1011.0
20260504194533 25 11 9.7 17.7 0.00 0.00 0.00 41 1010.9
20260504193111 25 10 9.7 19.3 0.00 0.00 0.00 40 1011.0
20260504191534 25 346 8.0 12.9 0.00 0.00 0.00 41 1011.2
20260504190037 25 357 8.0 14.5 0.00 0.00 0.00 43 1011.2
20260504184533 24 12 9.7 14.5 0.00 0.00 0.00 44 1011.3
20260504183032 24 11 9.7 14.5 0.00 0.00 0.00 45 1011.3
20260504181535 24 9 6.4 11.3 0.00 0.00 0.00 45 1011.3
20260504174531 23 338 6.4 14.5 0.00 0.00 0.00 44 1011.4
20260504173035 23 4 6.4 11.3 0.00 0.00 0.00 44 1011.3
20260504171535 22 356 4.8 9.7 0.00 0.00 0.00 46 1011.3
20260504170112 21 340 3.2 9.7 0.00 0.00 0.00 49 1011.4
20260504130109 10 157 4.8 6.4 0.00 0.00 0.00 76 1010.5
20260504120143 11 160 4.8 6.4 0.00 0.00 0.00 72 1010.5
20260504081530 12 159 4.8 6.4 0.00 0.00 0.00 64 1011.2
20260504044551 16 149 4.8 6.4 0.00 0.00 0.00 54 1010.8
20260504041540 17 153 6.4 9.7 0.00 0.00 0.00 51 1010.6
20260504040043 18 157 6.4 9.7 0.00 0.00 0.00 48 1010.3
20260504033036 20 164 6.4 9.7 0.00 0.00 0.00 46 1010.1
20260504031645 21 177 4.8 8.0 0.00 0.00 0.00 44 1009.9
20260504030106 23 167 4.8 8.0 0.00 0.00 0.00 39 1009.8
20260504024535 25 229 1.6 4.8 0.00 0.00 0.00 34 1009.8
20260504023035 26 289 0.0 3.2 0.00 0.00 0.00 32 1009.8
20260504021537 26 292 3.2 6.4 0.00 0.00 0.00 30 1010.1